This is the latest recevied weather packets stored in our database for station/object WL7CLI. If no packets are shown the sender has not sent any weather packets the latest 10 day(s).
| Time | Temp. | Humidity | Pressure | Rain* | Wind** | Luminosity | Snow |
|---|---|---|---|---|---|---|---|
| 1778133372 | 6.11° C | 61% | 1015.7 hPa | 0 mm | - | - | - |
| 1778132298 | 6.67° C | 60% | 1015.8 hPa | 0 mm | - | - | - |
| 1778132172 | 6.67° C | 60% | 1015.8 hPa | 0 mm | - | - | - |
| 1778131705 | 6.67° C | 58% | 1015.4 hPa | 0 mm | - | - | - |
| 1778131098 | 6.67° C | 59% | 1015.8 hPa | 0 mm | - | - | - |
| 1778130974 | 6.67° C | 58% | 1015.9 hPa | 0 mm | - | - | - |
| 1778129905 | 6.67° C | 60% | 1015.6 hPa | 0 mm | - | - | - |
| 1778129900 | 6.67° C | 59% | 1016 hPa | 0 mm | - | - | - |
| 1778129773 | 6.67° C | 59% | 1016 hPa | 0 mm | - | - | - |
| 1778128699 | 6.67° C | 57% | 1016 hPa | 0 mm | - | - | - |
| 1778128572 | 6.67° C | 57% | 1016.1 hPa | 0 mm | - | - | - |
| 1778128105 | 6.67° C | 56% | 1015.5 hPa | 0 mm | - | - | - |
| 1778127499 | 6.67° C | 55% | 1016.2 hPa | 0 mm | - | - | - |
| 1778127373 | 6.67° C | 56% | 1016.2 hPa | 0 mm | - | - | - |
| 1778126305 | 6.67° C | 55% | 1015.7 hPa | 0 mm | - | - | - |
| 1778126298 | 6.67° C | 55% | 1016.3 hPa | 0 mm | - | - | - |
| 1778126175 | 6.67° C | 53% | 1016.3 hPa | 0 mm | - | - | - |
| 1778125100 | 7.22° C | 54% | 1016.4 hPa | 0 mm | - | - | - |
| 1778124975 | 7.22° C | 52% | 1016.4 hPa | 0 mm | - | - | - |
| 1778124505 | 7.22° C | 53% | 1015.9 hPa | 0 mm | - | - | - |
| 1778123899 | 7.78° C | 51% | 1016.5 hPa | 0 mm | - | - | - |
| 1778123774 | 7.78° C | 51% | 1016.5 hPa | 0 mm | - | - | - |
| 1778122705 | 7.78° C | 48% | 1016 hPa | 0 mm | - | - | - |
| 1778122699 | 7.78° C | 48% | 1016.5 hPa | 0 mm | - | - | - |
| 1778122574 | 8.33° C | 48% | 1016.5 hPa | 0 mm | - | - | - |
* Rain latest hour (hover to see other rain measurements)
** Current wind speed in m/s (hover to see current wind gust speed)